STARLINK-34235 (64760 NORAD) Tracking and Keplerian Element Data

This shows tracking and keplerian element data for the satellite.

Feedback or suggestion? Click here.




ElementValue
Catalog64760
NameSTARLINK-34235
Epoch Orbit2659
Epoch Day354.01823881
Epoch Year2025
RAAN252.8268
Inclination53.1584
Eccentricity0.0001118
Argument of Perigee83.3922
Mean Anonmoly276.7206
Mean Motion15.3020299
Decay Rate0.00013162
L11 64760U 25147F 25354.01823881 .00013162 00000+0 45570-3 0 9998
L22 64760 53.1584 252.8268 0001118 83.3922 276.7206 15.30202990 26595



Live tracking and technical data element details for STARLINK-34235 (NORAD 64760). STARLINK-34235 can be tracked NOW for your location showing map with azimuth and elevation plus other details from your city location.







IsCatalogInMostPopularTable: catalog: 64760, numindb: 3
Update: records affected: 1



GetName: 64760 STARLINK-34235

Hit Count: updated at: Sun, 08 Feb 2026 08:04:33 GMT